Location: ????????
(55.0559°N, 39.1270°E)
Time: 00:41:47
(UTC+00:00)

NOSS 2-2 (E) - Pass Details

Date: 15 November 2025
Orbit: 385 x 1723 km, 63.3° (Epoch: 12 December)

Event Time Altitude Azimuth Distance (km) Brightness Sun altitude
Exits shadow 04:08:41 - 299° (WNW) 1,781 5.2 -6.8°
Reaches altitude 10° 04:08:55 10° 298° (WNW) 1,693 5.1 -6.8°
Maximum altitude 04:12:23 39° 228° (SW) 880 4.2 -6.3°
Drops below altitude 10° 04:16:58 10° 160° (SSE) 2,241 7.1 -5.7°
Sets 04:19:54 0° 154° (SSE) 3,401 8.3 -5.3°
